CW2071 Weather Reports


Display with metric or nautical units.
time (UTC)temp
F
wind
direction
speed
MPH
gust
MPH
rain 1hr
in
rain 24hr
in
rain mn
in
humidity
%
barometer
mb
20260507072552 46 286 4.0 5.0 0.00 0.00 0.00 69 1013.3
20260507072024 46 286 3.0 7.0 0.00 0.00 0.00 68 1013.3
20260507071540 47 276 3.0 8.0 0.00 0.00 0.00 68 1013.4
20260507071034 47 335 2.0 8.0 0.00 0.00 0.00 67 1013.4
20260507070545 48 261 2.0 5.0 0.00 0.00 0.00 67 1013.5
20260507070038 48 308 2.0 5.0 0.00 0.00 0.00 66 1013.5
20260507065553 48 309 2.0 5.0 0.00 0.00 0.00 66 1013.6
20260507065027 48 206 2.0 5.0 0.00 0.00 0.00 67 1013.7
20260507064524 48 290 1.0 4.0 0.00 0.00 0.00 66 1013.7
20260507064021 48 269 1.0 3.0 0.00 0.00 0.00 67 1013.8
20260507063516 48 63 1.0 4.0 0.00 0.00 0.00 66 1013.8
20260507063039 48 321 2.0 4.0 0.00 0.00 0.00 66 1013.8
20260507062532 48 308 1.0 4.0 0.00 0.00 0.00 67 1013.9
20260507062028 47 246 1.0 6.0 0.00 0.00 0.00 67 1013.9
20260507061524 47 314 1.0 6.0 0.00 0.00 0.00 67 1014.0
20260507061020 47 296 1.0 4.0 0.00 0.00 0.00 67 1013.9
20260507060540 47 305 1.0 6.0 0.00 0.00 0.00 66 1013.9
20260507060036 48 269 2.0 6.0 0.00 0.00 0.00 66 1013.9
20260507055530 48 286 2.0 5.0 0.00 0.00 0.00 66 1014.0
20260507055024 48 303 3.0 4.0 0.00 0.00 0.00 65 1014.1
20260507054521 48 303 2.0 6.0 0.00 0.00 0.00 64 1014.1
20260507054016 49 279 2.0 6.0 0.00 0.00 0.00 63 1014.2
20260507053541 49 46 2.0 6.0 0.00 0.00 0.00 63 1014.3
20260507053032 50 20 2.0 4.0 0.00 0.00 0.00 62 1014.2
20260507052527 50 231 1.0 4.0 0.00 0.00 0.00 62 1014.2
20260507052022 49 135 1.0 4.0 0.00 0.00 0.00 62 1014.4
20260507051518 49 283 1.0 5.0 0.00 0.00 0.00 62 1014.3
20260507051104 49 296 1.0 5.0 0.00 0.00 0.00 62 1014.4
20260507050535 48 223 1.0 3.0 0.00 0.00 0.00 63 1014.3
20260507050024 47 234 1.0 4.0 0.00 0.00 0.00 64 1014.4
20260507045513 46 46 1.0 4.0 0.00 0.00 0.00 61 1014.4
20260507045014 45 269 1.0 3.0 0.00 0.00 0.00 59 1014.5
20260507044513 46 290 1.0 2.0 0.00 0.00 0.00 57 1014.5
20260507044037 46 290 1.0 2.0 0.00 0.00 0.00 54 1014.5
20260507043550 46 331 1.0 2.0 0.00 0.00 0.00 52 1014.6
20260507043028 47 314 1.0 2.0 0.00 0.00 0.00 51 1014.6
20260507042527 48 1 1.0 2.0 0.00 0.00 0.00 50 1014.6
20260507042048 48 314 0.0 2.0 0.00 0.00 0.00 49 1014.6
20260507041524 49 35 0.0 2.0 0.00 0.00 0.00 48 1014.6
20260507041021 49 286 0.0 1.0 0.00 0.00 0.00 48 1014.6
20260507040538 49 161 0.0 1.0 0.00 0.00 0.00 48 1014.7
20260507040037 49 231 0.0 2.0 0.00 0.00 0.00 48 1014.7
20260507035555 49 296 0.0 2.0 0.00 0.00 0.00 47 1014.7
20260507035055 49 213 0.0 2.0 0.00 0.00 0.00 47 1014.9
20260507034531 49 283 1.0 2.0 0.00 0.00 0.00 47 1014.9
20260507034031 49 286 0.0 2.0 0.00 0.00 0.00 47 1014.8
20260507033532 49 241 0.0 2.0 0.00 0.00 0.00 47 1014.9
20260507033052 49 314 0.0 2.0 0.00 0.00 0.00 47 1015.0
20260507032528 49 89 0.0 2.0 0.00 0.00 0.00 46 1015.0
20260507032027 49 178 1.0 2.0 0.00 0.00 0.00 46 1015.0
20260507031520 49 46 0.0 2.0 0.00 0.00 0.00 46 1015.0
20260507031017 49 340 0.0 2.0 0.00 0.00 0.00 45 1015.0
20260507030537 49 89 1.0 2.0 0.00 0.00 0.00 45 1014.9
20260507030033 49 1 0.0 1.0 0.00 0.00 0.00 45 1015.0
20260507025532 49 206 0.0 1.0 0.00 0.00 0.00 44 1015.0
20260507025028 49 117 0.0 1.0 0.00 0.00 0.00 43 1015.0
20260507024527 49 63 0.0 1.0 0.00 0.00 0.00 42 1014.9
20260507024028 49 46 0.0 2.0 0.00 0.00 0.00 42 1015.0
20260507023526 50 28 1.0 2.0 0.00 0.00 0.00 41 1015.0
20260507023025 50 1 0.0 2.0 0.00 0.00 0.00 40 1015.0
20260507022540 50 314 0.0 1.0 0.00 0.00 0.00 40 1014.9
20260507022038 51 269 0.0 1.0 0.00 0.00 0.00 39 1014.9
20260507021534 51 286 1.0 2.0 0.00 0.00 0.00 39 1014.9
20260507021031 52 46 0.0 2.0 0.00 0.00 0.00 37 1014.8
20260507020528 52 331 0.0 1.0 0.00 0.00 0.00 37 1014.7
20260507020025 53 1 1.0 1.0 0.00 0.00 0.00 37 1014.8
20260507015520 54 314 0.0 1.0 0.00 0.00 0.00 36 1014.8
20260507015038 54 46 0.0 1.0 0.00 0.00 0.00 36 1014.7
20260507014536 54 46 0.0 1.0 0.00 0.00 0.00 35 1014.8
20260507014029 55 152 0.0 1.0 0.00 0.00 0.00 34 1014.8
20260507013527 56 89 0.0 2.0 0.00 0.00 0.00 34 1014.8
20260507013026 56 269 0.0 3.0 0.00 0.00 0.00 34 1014.7
20260507012545 57 336 0.0 4.0 0.00 0.00 0.00 32 1014.8
20260507012043 57 286 2.0 4.0 0.00 0.00 0.00 32 1014.8
20260507011522 58 258 2.0 3.0 0.00 0.00 0.00 32 1014.7
20260507011021 58 277 2.0 6.0 0.00 0.00 0.00 31 1014.7
20260507010540 58 274 3.0 6.0 0.00 0.00 0.00 30 1014.9
20260507010037 59 291 3.0 5.0 0.00 0.00 0.00 29 1014.8
20260507005528 59 283 1.0 5.0 0.00 0.00 0.00 28 1014.8
20260507005023 59 279 2.0 7.0 0.00 0.00 0.00 27 1014.9
20260507004520 59 305 5.0 7.0 0.00 0.00 0.00 27 1014.8
20260507004037 59 290 4.0 6.0 0.00 0.00 0.00 28 1014.8
20260507003554 59 223 2.0 5.0 0.00 0.00 0.00 27 1014.9
20260507003030 59 303 2.0 5.0 0.00 0.00 0.00 28 1015.0
20260507002526 59 295 2.0 7.0 0.00 0.00 0.00 28 1015.0
20260507002043 59 285 4.0 8.0 0.00 0.00 0.00 27 1014.9
20260507001541 60 288 5.0 8.0 0.00 0.00 0.00 26 1014.9
20260507001039 60 274 4.0 10.0 0.00 0.00 0.00 26 1015.0
20260507000531 60 276 6.0 10.0 0.00 0.00 0.00 26 1015.0
20260507000028 61 278 3.0 10.0 0.00 0.00 0.00 25 1015.1
20260506235526 62 301 5.0 11.0 0.00 0.00 0.00 25 1015.0
20260506235045 62 278 6.0 11.0 0.00 0.00 0.00 25 1015.2
20260506234521 61 286 7.0 10.0 0.00 0.00 0.00 25 1015.1
20260506234017 61 279 6.0 10.0 0.00 0.00 0.00 26 1015.2
20260506233540 61 290 5.0 13.0 0.00 0.00 0.00 25 1015.2
20260506233059 62 293 7.0 13.0 0.00 0.00 0.00 25 1015.3
20260506232532 62 269 6.0 12.0 0.00 0.00 0.00 25 1015.3
20260506232024 62 279 6.0 11.0 0.00 0.00 0.00 25 1015.4
20260506231540 61 295 5.0 14.0 0.00 0.00 0.00 27 1015.3
20260506231036 60 288 7.0 14.0 0.00 0.00 0.00 26 1015.4
20260506230532 60 241 5.0 11.0 0.00 0.00 0.00 27 1015.4
20260506230028 60 309 5.0 12.0 0.00 0.00 0.00 26 1015.5
20260506225545 61 288 6.0 12.0 0.00 0.00 0.00 26 1015.5
20260506225043 60 262 5.0 10.0 0.00 0.00 0.00 26 1015.5
20260506224538 61 284 6.0 10.0 0.00 0.00 0.00 26 1015.6
20260506224036 60 231 5.0 10.0 0.00 0.00 0.00 27 1015.5
20260506223529 61 276 5.0 10.0 0.00 0.00 0.00 25 1015.8
20260506223031 61 304 5.0 11.0 0.00 0.00 0.00 26 1015.6
20260506222531 60 281 6.0 12.0 0.00 0.00 0.00 26 1015.8
20260506222028 60 283 6.0 12.0 0.00 0.00 0.00 26 1015.8
20260506221529 61 299 8.0 12.0 0.00 0.00 0.00 26 1015.6
20260506221026 60 310 4.0 13.0 0.00 0.00 0.00 27 1015.8
20260506220544 61 334 8.0 13.0 0.00 0.00 0.00 27 1015.9
20260506220043 61 281 7.0 11.0 0.00 0.00 0.00 26 1016.0
20260506215543 61 254 2.0 9.0 0.00 0.00 0.00 26 1016.0
20260506215017 61 46 2.0 9.0 0.00 0.00 0.00 25 1016.0
20260506214525 61 279 3.0 10.0 0.00 0.00 0.00 25 1016.1
20260506214027 61 291 4.0 15.0 0.00 0.00 0.00 25 1016.0
20260506213524 62 286 8.0 15.0 0.00 0.00 0.00 25 1016.2
20260506213016 61 293 8.0 14.0 0.00 0.00 0.00 27 1016.1
20260506212032 61 293 8.0 14.0 0.00 0.00 0.00 26 1016.4
20260506211526 61 288 7.0 16.0 0.00 0.00 0.00 26 1016.3
20260506211040 62 285 8.0 16.0 0.00 0.00 0.00 24 1016.5
20260506210525 62 308 7.0 13.0 0.00 0.00 0.00 27 1016.5
20260506210036 61 285 5.0 16.0 0.00 0.00 0.00 28 1016.7
20260506205518 61 236 7.0 16.0 0.00 0.00 0.00 26 1016.8
20260506205038 62 296 7.0 26.0 0.00 0.00 0.00 27 1016.7
20260506204534 62 297 8.0 26.0 0.00 0.00 0.00 27 1016.7
20260506204032 61 286 5.0 11.0 0.00 0.00 0.00 27 1016.9
20260506203527 62 276 7.0 16.0 0.00 0.00 0.00 26 1017.0
20260506203045 62 295 8.0 16.0 0.00 0.00 0.00 25 1017.0
20260506202517 62 288 6.0 13.0 0.00 0.00 0.00 26 1017.0
20260506202017 62 278 5.0 13.0 0.00 0.00 0.00 25 1017.1
20260506201539 62 281 7.0 14.0 0.00 0.00 0.00 26 1017.2
20260506201015 62 298 7.0 20.0 0.00 0.00 0.00 26 1017.3
20260506200526 62 281 11.0 20.0 0.00 0.00 0.00 26 1017.3
20260506200023 62 279 8.0 18.0 0.00 0.00 0.00 28 1017.4
20260506195519 61 301 4.0 9.0 0.00 0.00 0.00 27 1017.4
20260506195037 61 244 3.0 12.0 0.00 0.00 0.00 27 1017.5
20260506194601 61 288 6.0 13.0 0.00 0.00 0.00 27 1017.6
20260506194013 61 288 8.0 18.0 0.00 0.00 0.00 27 1017.7
20260506193513 61 310 9.0 18.0 0.00 0.00 0.00 28 1017.6
20260506193033 59 302 8.0 17.0 0.00 0.00 0.00 28 1017.7
20260506192532 59 307 10.0 17.0 0.00 0.00 0.00 27 1017.7
20260506192028 60 296 4.0 17.0 0.00 0.00 0.00 26 1017.7
20260506191526 60 271 8.0 21.0 0.00 0.00 0.00 27 1017.8
20260506191043 60 303 13.0 21.0 0.00 0.00 0.00 27 1017.8
20260506190520 60 303 11.0 19.0 0.00 0.00 0.00 27 1017.9
20260506190019 59 13 7.0 16.0 0.00 0.00 0.00 31 1018.0
20260506185517 59 305 8.0 16.0 0.00 0.00 0.00 28 1017.8
20260506185013 59 284 7.0 16.0 0.00 0.00 0.00 29 1018.0
20260506184539 59 314 7.0 13.0 0.00 0.00 0.00 28 1017.9
20260506184026 59 157 5.0 12.0 0.00 0.00 0.00 29 1018.1
20260506183546 58 152 3.0 16.0 0.00 0.00 0.00 29 1018.2
20260506183042 57 255 6.0 22.0 0.00 0.00 0.00 30 1018.3
20260506182528 57 307 12.0 22.0 0.00 0.00 0.00 30 1018.3
20260506182037 57 243 8.0 12.0 0.00 0.00 0.00 32 1018.3
20260506181521 58 293 5.0 15.0 0.00 0.00 0.00 30 1018.4
20260506181040 57 278 8.0 15.0 0.00 0.00 0.00 30 1018.4
20260506180537 56 291 6.0 12.0 0.00 0.00 0.00 30 1018.5
20260506180035 57 283 5.0 11.0 0.00 0.00 0.00 30 1018.6
20260506175530 58 286 7.0 13.0 0.00 0.00 0.00 29 1018.7
20260506175040 58 23 10.0 13.0 0.00 0.00 0.00 32 1018.8
20260506174514 58 312 5.0 22.0 0.00 0.00 0.00 30 1018.7
20260506174040 58 291 13.0 22.0 0.00 0.00 0.00 31 1018.9
20260506173538 57 237 7.0 17.0 0.00 0.00 0.00 32 1018.9
20260506173018 56 301 7.0 12.0 0.00 0.00 0.00 34 1018.8
20260506172520 57 269 6.0 13.0 0.00 0.00 0.00 33 1018.9
20260506172028 57 293 6.0 13.0 0.00 0.00 0.00 34 1018.9
20260506171523 56 246 5.0 13.0 0.00 0.00 0.00 33 1018.9
20260506171039 55 300 9.0 15.0 0.00 0.00 0.00 34 1019.0
20260506170558 55 290 5.0 15.0 0.00 0.00 0.00 33 1018.9
20260506170030 56 343 5.0 15.0 0.00 0.00 0.00 33 1019.1
20260506165523 56 276 7.0 15.0 0.00 0.00 0.00 34 1019.0
20260506165019 56 286 5.0 13.0 0.00 0.00 0.00 34 1019.0
20260506164537 56 283 5.0 13.0 0.00 0.00 0.00 33 1019.1
20260506164032 56 283 9.0 14.0 0.00 0.00 0.00 33 1019.1
20260506163529 56 308 8.0 15.0 0.00 0.00 0.00 32 1019.0
20260506163043 56 30 5.0 15.0 0.00 0.00 0.00 35 1019.2
20260506162534 56 301 8.0 14.0 0.00 0.00 0.00 35 1019.1
20260506162014 55 285 7.0 13.0 0.00 0.00 0.00 33 1019.2
20260506161536 55 324 4.0 14.0 0.00 0.00 0.00 36 1019.2
20260506161052 54 286 6.0 14.0 0.00 0.00 0.00 36 1019.2
20260506160528 55 281 4.0 17.0 0.00 0.00 0.00 36 1019.2
20260506160045 54 291 10.0 17.0 0.00 0.00 0.00 35 1019.2
20260506155540 54 258 8.0 15.0 0.00 0.00 0.00 34 1019.2
20260506155035 54 300 8.0 16.0 0.00 0.00 0.00 37 1019.1
20260506154528 54 303 6.0 13.0 0.00 0.00 0.00 34 1019.1
20260506154026 53 303 6.0 18.0 0.00 0.00 0.00 36 1019.1
20260506153517 53 293 8.0 18.0 0.00 0.00 0.00 36 1019.1
20260506153039 53 300 7.0 18.0 0.00 0.00 0.00 36 1019.1
20260506152530 53 250 8.0 18.0 0.00 0.00 0.00 37 1019.2
20260506152048 52 296 8.0 15.0 0.00 0.00 0.00 36 1019.2
20260506151519 53 327 4.0 18.0 0.00 0.00 0.00 37 1019.2
20260506151042 53 314 7.0 18.0 0.00 0.00 0.00 37 1019.2
20260506150535 52 283 4.0 13.0 0.00 0.00 0.00 38 1019.2
20260506150026 52 302 8.0 13.0 0.00 0.00 0.00 39 1019.3
20260506145525 51 274 4.0 11.0 0.00 0.00 0.00 41 1019.2
20260506145025 51 281 4.0 11.0 0.00 0.00 0.00 41 1019.2
20260506144540 51 286 4.0 7.0 0.00 0.00 0.00 41 1019.2
20260506144036 50 307 5.0 7.0 0.00 0.00 0.00 43 1019.2
20260506143530 50 299 4.0 8.0 0.00 0.00 0.00 42 1019.2
20260506143025 50 286 5.0 8.0 0.00 0.00 0.00 43 1019.3
20260506142541 50 281 3.0 6.0 0.00 0.00 0.00 45 1019.2
20260506142037 49 285 2.0 6.0 0.00 0.00 0.00 45 1019.3
20260506141533 49 241 3.0 6.0 0.00 0.00 0.00 45 1019.2
20260506141027 49 254 2.0 6.0 0.00 0.00 0.00 49 1019.2
20260506140522 48 287 2.0 6.0 0.00 0.00 0.00 49 1019.2
20260506140040 48 259 3.0 5.0 0.00 0.00 0.00 49 1019.2
20260506135549 47 297 2.0 4.0 0.00 0.00 0.00 52 1019.2
20260506135036 47 276 2.0 5.0 0.00 0.00 0.00 53 1019.2
20260506134527 46 283 2.0 5.0 0.00 0.00 0.00 54 1019.2
20260506134020 46 298 2.0 4.0 0.00 0.00 0.00 55 1019.1
20260506133542 45 274 2.0 3.0 0.00 0.00 0.00 56 1018.9
20260506133037 45 296 2.0 4.0 0.00 0.00 0.00 56 1019.0
20260506132525 45 331 1.0 4.0 0.00 0.00 0.00 56 1018.9
20260506132024 45 296 2.0 3.0 0.00 0.00 0.00 56 1018.9
20260506131514 44 296 2.0 3.0 0.00 0.00 0.00 58 1018.9
20260506131016 44 336 2.0 3.0 0.00 0.00 0.00 60 1018.8
20260506130537 43 322 2.0 3.0 0.00 0.00 0.00 61 1018.7
20260506130028 43 347 1.0 4.0 0.00 0.00 0.00 61 1018.6
20260506125522 42 295 2.0 4.0 0.00 0.00 0.00 61 1018.6
20260506125031 41 293 1.0 3.0 0.00 0.00 0.00 63 1018.6
20260506124528 40 324 2.0 4.0 0.00 0.00 0.00 65 1018.5
20260506124025 40 299 2.0 4.0 0.00 0.00 0.00 67 1018.5
20260506123540 39 298 3.0 4.0 0.00 0.00 0.00 69 1018.5
20260506123057 38 319 3.0 4.0 0.00 0.00 0.00 72 1018.5
20260506122550 37 283 2.0 4.0 0.00 0.00 0.00 74 1018.5
20260506122040 37 301 2.0 4.0 0.00 0.00 0.00 76 1018.3
20260506121538 36 286 1.0 2.0 0.00 0.00 0.00 77 1018.3
20260506121055 36 291 1.0 2.0 0.00 0.00 0.00 78 1018.4
20260506120527 35 286 1.0 2.0 0.00 0.00 0.00 79 1018.3
20260506120024 35 269 1.0 2.0 0.00 0.00 0.00 79 1018.2
20260506115542 35 283 1.0 3.0 0.00 0.00 0.00 78 1018.2
20260506115012 34 283 1.0 3.0 0.00 0.00 0.00 78 1018.2
20260506114535 35 314 1.0 3.0 0.00 0.00 0.00 77 1018.1
20260506114023 35 303 2.0 3.0 0.00 0.00 0.00 77 1018.1
20260506113516 35 284 2.0 3.0 0.00 0.00 0.00 76 1017.9
20260506113051 35 277 1.0 2.0 0.00 0.00 0.00 76 1017.8
20260506112524 35 269 1.0 2.0 0.00 0.00 0.00 76 1017.8
20260506112020 35 324 1.0 2.0 0.00 0.00 0.00 76 1017.8
20260506111539 35 300 1.0 2.0 0.00 0.00 0.00 75 1017.7
20260506111058 35 314 1.0 2.0 0.00 0.00 0.00 75 1017.6
20260506110528 35 303 1.0 2.0 0.00 0.00 0.00 74 1017.6
20260506110027 35 269 1.0 2.0 0.00 0.00 0.00 74 1017.7
20260506105520 35 290 2.0 2.0 0.00 0.00 0.00 74 1017.5
20260506105038 35 290 1.0 2.0 0.00 0.00 0.00 74 1017.5
20260506104531 35 331 0.0 0.0 0.00 0.00 0.00 73 1017.4
20260506104030 35 46 0.0 0.0 0.00 0.00 0.00 73 1017.4
20260506103525 35 269 0.0 1.0 0.00 0.00 0.00 73 1017.4
20260506103019 35 269 0.0 1.0 0.00 0.00 0.00 72 1017.5
20260506102515 35 314 0.0 1.0 0.00 0.00 0.00 72 1017.4
20260506102013 36 178 0.0 1.0 0.00 0.00 0.00 72 1017.4
20260506101559 36 331 0.0 1.0 0.00 0.00 0.00 72 1017.4
20260506101031 36 178 0.0 1.0 0.00 0.00 0.00 71 1017.3
20260506100524 35 46 0.0 1.0 0.00 0.00 0.00 72 1017.3
20260506100040 35 314 0.0 1.0 0.00 0.00 0.00 71 1017.3
20260506095539 35 46 0.0 1.0 0.00 0.00 0.00 71 1017.3
20260506095031 35 241 0.0 1.0 0.00 0.00 0.00 70 1017.4
20260506094527 36 303 1.0 2.0 0.00 0.00 0.00 69 1017.3
20260506094024 36 269 0.0 2.0 0.00 0.00 0.00 69 1017.3
20260506093541 36 296 1.0 2.0 0.00 0.00 0.00 68 1017.3
20260506093036 36 314 1.0 1.0 0.00 0.00 0.00 67 1017.1
20260506092522 37 1 0.0 2.0 0.00 0.00 0.00 66 1017.0
20260506092037 37 223 1.0 2.0 0.00 0.00 0.00 66 1017.0
20260506091532 38 234 1.0 2.0 0.00 0.00 0.00 65 1017.1
20260506091029 38 269 0.0 2.0 0.00 0.00 0.00 65 1017.2
20260506090522 38 314 2.0 2.0 0.00 0.00 0.00 65 1017.0
20260506090017 38 46 0.0 2.0 0.00 0.00 0.00 65 1017.0
20260506085600 38 296 1.0 2.0 0.00 0.00 0.00 65 1016.9
20260506085035 39 277 1.0 2.0 0.00 0.00 0.00 66 1016.9
20260506084528 39 63 0.0 2.0 0.00 0.00 0.00 65 1016.8
20260506083521 39 46 1.0 2.0 0.00 0.00 0.00 66 1016.8
20260506083039 39 290 1.0 2.0 0.00 0.00 0.00 66 1016.7
20260506082556 39 269 1.0 1.0 0.00 0.00 0.00 65 1016.6
20260506082033 39 314 1.0 2.0 0.00 0.00 0.00 64 1016.6
20260506081532 39 1 1.0 2.0 0.00 0.00 0.00 64 1016.5
20260506081029 39 360 1.0 2.0 0.00 0.00 0.00 63 1016.4
20260506080523 39 296 1.0 2.0 0.00 0.00 0.00 63 1016.4
20260506073034 40 241 1.0 2.0 0.00 0.00 0.00 65 1016.6